User: anonymous   Login
Location: Twentynine Palms Airport
(34.1316°N, 115.9458°W)
Time: 05:09:22
(UTC-07:00)
Language:

Oscar 19 - Orbit

View from above orbital plane
View from above orbital plane
View from above satellite
View from above satellite

Ground track
Ground track

The orbit data is extracted from the following two-line orbital elements,

1 20442U 90005G   17085.81385995 +.00000017 +00000-0 +22352-4 0  9991
2 20442 098.5703 023.1907 0012506 035.7532 324.4487 14.32852981419826
Epoch (UTC): 26 March 2017 19:31:57
Eccentricity: 0.0012506
inclination: 98.5703°
perigee height: 773 km
apogee height: 791 km
right ascension of ascending node: 23.1907°
argument of perigee: 35.7532°
revolutions per day: 14.32852981
mean anomaly at epoch: 324.4487°
orbit number at epoch: 41982

The dashed part of the orbit path shows where the satellite is in the earth's shadow,  

DLR